"Time","Value","Approval","myLocation"
"2023-05-06 00:00",3.10321036656549,"Approved","OW389"
"2023-05-06 01:00",3.04412444548214,"Approved","OW389"
"2023-05-06 02:00",3.00003852439879,"Approved","OW389"
"2023-05-06 03:00",2.98295260331543,"Approved","OW389"
"2023-05-06 04:00",2.98686668223208,"Approved","OW389"
"2023-05-06 05:00",3.00578076114873,"Approved","OW389"
"2023-05-06 06:00",3.03169484006537,"Approved","OW389"
"2023-05-06 07:00",3.05560891898202,"Approved","OW389"
"2023-05-06 08:00",3.06952299789867,"Approved","OW389"
"2023-05-06 09:00",3.06643707681532,"Approved","OW389"
"2023-05-06 10:00",3.04935115573196,"Approved","OW389"
"2023-05-06 11:00",3.01326523464861,"Approved","OW389"
"2023-05-06 12:00",2.97017931356526,"Approved","OW389"
"2023-05-06 13:00",2.94209339248191,"Approved","OW389"
"2023-05-06 14:00",2.93800747139855,"Approved","OW389"
"2023-05-06 15:00",2.9659215503152,"Approved","OW389"
"2023-05-06 16:00",3.01483562923185,"Approved","OW389"
"2023-05-06 17:00",3.06374970814849,"Approved","OW389"
"2023-05-06 18:00",3.11066378706514,"Approved","OW389"
"2023-05-06 19:00",3.14757786598179,"Approved","OW389"
"2023-05-06 20:00",3.17449194489844,"Approved","OW389"
"2023-05-06 21:00",3.19040602381508,"Approved","OW389"
"2023-05-06 22:00",3.19232010273173,"Approved","OW389"
"2023-05-06 23:00",3.17323418164838,"Approved","OW389"
"2023-05-07 00:00",3.13214826056502,"Approved","OW389"
"2023-05-07 01:00",3.07106233948167,"Approved","OW389"
"2023-05-07 02:00",3.00097641839832,"Approved","OW389"
"2023-05-07 03:00",2.94989049731497,"Approved","OW389"
"2023-05-07 04:00",2.92680457623161,"Approved","OW389"
"2023-05-07 05:00",2.92671865514826,"Approved","OW389"
"2023-05-07 06:00",2.94063273406491,"Approved","OW389"
"2023-05-07 07:00",2.96054681298155,"Approved","OW389"
"2023-05-07 08:00",2.9934608918982,"Approved","OW389"
"2023-05-07 09:00",3.00737497081485,"Approved","OW389"
"2023-05-07 10:00",3.0002890497315,"Approved","OW389"
"2023-05-07 11:00",2.98220312864814,"Approved","OW389"
"2023-05-07 12:00",2.95611720756479,"Approved","OW389"
"2023-05-07 13:00",2.93603128648144,"Approved","OW389"
"2023-05-07 14:00",2.92894536539809,"Approved","OW389"
"2023-05-07 15:00",2.94985944431473,"Approved","OW389"
"2023-05-07 16:00",2.98377352323138,"Approved","OW389"
"2023-05-07 17:00",3.03168760214803,"Approved","OW389"
"2023-05-07 18:00",3.09360168106467,"Approved","OW389"
"2023-05-07 19:00",3.14251575998132,"Approved","OW389"
"2023-05-07 20:00",3.18242983889797,"Approved","OW389"
"2023-05-07 21:00",3.21034391781462,"Approved","OW389"
"2023-05-07 22:00",3.22425799673126,"Approved","OW389"
"2023-05-07 23:00",3.19817207564791,"Approved","OW389"
"2023-05-08 00:00",3.15708615456456,"Approved","OW389"
"2023-05-08 01:00",3.0960002334812,"Approved","OW389"
"2023-05-08 02:00",3.03291431239785,"Approved","OW389"
"2023-05-08 03:00",2.9738283913145,"Approved","OW389"
"2023-05-08 04:00",2.93974247023115,"Approved","OW389"
"2023-05-08 05:00",2.92865654914779,"Approved","OW389"
"2023-05-08 06:00",2.93557062806444,"Approved","OW389"
"2023-05-08 07:00",2.95748470698109,"Approved","OW389"
"2023-05-08 08:00",2.98239878589774,"Approved","OW389"
"2023-05-08 09:00",2.99931286481438,"Approved","OW389"
"2023-05-08 10:00",2.99022694373103,"Approved","OW389"
"2023-05-08 11:00",2.97214102264768,"Approved","OW389"
"2023-05-08 12:00",2.94705510156432,"Approved","OW389"
"2023-05-08 13:00",2.91996918048097,"Approved","OW389"
"2023-05-08 14:00",2.90688325939762,"Approved","OW389"
"2023-05-08 15:00",2.93479733831427,"Approved","OW389"
"2023-05-08 16:00",2.97071141723091,"Approved","OW389"
"2023-05-08 17:00",3.02062549614756,"Approved","OW389"
"2023-05-08 18:00",3.07353957506421,"Approved","OW389"
"2023-05-08 19:00",3.12445365398085,"Approved","OW389"
"2023-05-08 20:00",3.1683677328975,"Approved","OW389"
"2023-05-08 21:00",3.20328181181415,"Approved","OW389"
"2023-05-08 22:00",3.2031958907308,"Approved","OW389"
"2023-05-08 23:00",3.19310996964744,"Approved","OW389"
"2023-05-09 00:00",3.17402404856409,"Approved","OW389"
"2023-05-09 01:00",3.13093812748074,"Approved","OW389"
"2023-05-09 02:00",3.08085220639739,"Approved","OW389"
"2023-05-09 03:00",3.01776628531403,"Approved","OW389"
"2023-05-09 04:00",2.96468036423068,"Approved","OW389"
"2023-05-09 05:00",2.93159444314733,"Approved","OW389"
"2023-05-09 06:00",2.92250852206397,"Approved","OW389"
"2023-05-09 07:00",2.93442260098062,"Approved","OW389"
"2023-05-09 08:00",2.95533667989727,"Approved","OW389"
"2023-05-09 09:00",2.97725075881392,"Approved","OW389"
"2023-05-09 10:00",2.99416483773056,"Approved","OW389"
"2023-05-09 11:00",3.00007891664721,"Approved","OW389"
"2023-05-09 12:00",2.97599299556386,"Approved","OW389"
"2023-05-09 13:00",2.9499070744805,"Approved","OW389"
"2023-05-09 14:00",2.93982115339715,"Approved","OW389"
"2023-05-09 15:00",2.9407352323138,"Approved","OW389"
"2023-05-09 16:00",2.96364931123045,"Approved","OW389"
"2023-05-09 17:00",3.00156339014709,"Approved","OW389"
"2023-05-09 18:00",3.05347746906374,"Approved","OW389"
"2023-05-09 19:00",3.10339154798039,"Approved","OW389"
"2023-05-09 20:00",3.15030562689703,"Approved","OW389"
"2023-05-09 21:00",3.19121970581368,"Approved","OW389"
"2023-05-09 22:00",3.18713378473033,"Approved","OW389"
"2023-05-09 23:00",3.19104786364698,"Approved","OW389"
"2023-05-10 00:00",3.18596194256362,"Approved","OW389"
"2023-05-10 01:00",3.17687602148027,"Approved","OW389"
"2023-05-10 02:00",3.13979010039692,"Approved","OW389"
"2023-05-10 03:00",3.08170417931357,"Approved","OW389"
"2023-05-10 04:00",3.01661825823021,"Approved","OW389"
"2023-05-10 05:00",2.96553233714686,"Approved","OW389"
"2023-05-10 06:00",2.93544641606351,"Approved","OW389"
"2023-05-10 07:00",2.92636049498015,"Approved","OW389"
"2023-05-10 08:00",2.9362745738968,"Approved","OW389"
"2023-05-10 09:00",2.95718865281345,"Approved","OW389"
"2023-05-10 10:00",2.9781027317301,"Approved","OW389"
"2023-05-10 11:00",2.99401681064674,"Approved","OW389"
"2023-05-10 12:00",2.99793088956339,"Approved","OW389"
"2023-05-10 13:00",2.99484496848004,"Approved","OW389"
"2023-05-10 14:00",2.98375904739668,"Approved","OW389"
"2023-05-10 15:00",2.97367312631333,"Approved","OW389"
"2023-05-10 16:00",2.97558720522998,"Approved","OW389"
"2023-05-10 17:00",2.99350128414663,"Approved","OW389"
"2023-05-10 18:00",3.02341536306327,"Approved","OW389"
"2023-05-10 19:00",3.07932944197992,"Approved","OW389"
"2023-05-10 20:00",3.12924352089657,"Approved","OW389"
"2023-05-10 21:00",3.17515759981322,"Approved","OW389"
"2023-05-10 22:00",3.21107167872986,"Approved","OW389"
"2023-05-10 23:00",3.21598575764651,"Approved","OW389"
"2023-05-11 00:00",3.21689983656316,"Approved","OW389"
"2023-05-11 01:00",3.2078139154798,"Approved","OW389"
"2023-05-11 02:00",3.20072799439645,"Approved","OW389"
"2023-05-11 03:00",3.1676420733131,"Approved","OW389"
"2023-05-11 04:00",3.11255615222975,"Approved","OW389"
"2023-05-11 05:00",3.06447023114639,"Approved","OW389"
"2023-05-11 06:00",3.02238431006304,"Approved","OW389"
"2023-05-11 07:00",2.99729838897969,"Approved","OW389"
"2023-05-11 08:00",2.99521246789633,"Approved","OW389"
"2023-05-11 09:00",3.01212654681298,"Approved","OW389"
"2023-05-11 10:00",3.00804062572963,"Approved","OW389"
"2023-05-11 11:00",3.01895470464628,"Approved","OW389"
"2023-05-11 12:00",3.02786878356292,"Approved","OW389"
"2023-05-11 13:00",3.05178286247957,"Approved","OW389"
"2023-05-11 14:00",3.07169694139622,"Approved","OW389"
"2023-05-11 15:00",3.07361102031286,"Approved","OW389"
"2023-05-11 16:00",3.07552509922951,"Approved","OW389"
"2023-05-11 17:00",3.08343917814616,"Approved","OW389"
"2023-05-11 18:00",3.10235325706281,"Approved","OW389"
"2023-05-11 19:00",3.13126733597945,"Approved","OW389"
"2023-05-11 20:00",3.1471814148961,"Approved","OW389"
"2023-05-11 21:00",3.16709549381275,"Approved","OW389"
"2023-05-11 22:00",3.1900095727294,"Approved","OW389"
"2023-05-11 23:00",3.22392365164604,"Approved","OW389"
"2023-05-12 00:00",3.24483773056269,"Approved","OW389"
"2023-05-12 01:00",3.25375180947934,"Approved","OW389"
"2023-05-12 02:00",3.26766588839598,"Approved","OW389"
"2023-05-12 03:00",3.26257996731263,"Approved","OW389"
"2023-05-12 04:00",3.22649404622928,"Approved","OW389"
"2023-05-12 05:00",3.17440812514593,"Approved","OW389"
"2023-05-12 06:00",3.11932220406257,"Approved","OW389"
"2023-05-12 07:00",3.06223628297922,"Approved","OW389"
"2023-05-12 08:00",3.01715036189587,"Approved","OW389"
"2023-05-12 09:00",3.00106444081251,"Approved","OW389"
"2023-05-12 10:00",3.00497851972916,"Approved","OW389"
"2023-05-12 11:00",3.03489259864581,"Approved","OW389"
"2023-05-12 12:00",3.07880667756246,"Approved","OW389"
"2023-05-12 13:00",3.1127207564791,"Approved","OW389"
"2023-05-12 14:00",3.13563483539575,"Approved","OW389"
"2023-05-12 15:00",3.1495489143124,"Approved","OW389"
"2023-05-12 16:00",3.15446299322905,"Approved","OW389"
"2023-05-12 17:00",3.15637707214569,"Approved","OW389"
"2023-05-12 18:00",3.15929115106234,"Approved","OW389"
"2023-05-12 19:00",3.17120522997899,"Approved","OW389"
"2023-05-12 20:00",3.19311930889563,"Approved","OW389"
"2023-05-12 21:00",3.22503338781228,"Approved","OW389"
"2023-05-12 22:00",3.25594746672893,"Approved","OW389"
"2023-05-12 23:00",3.28886154564558,"Approved","OW389"
"2023-05-13 00:00",3.31077562456222,"Approved","OW389"
"2023-05-13 01:00",3.31068970347887,"Approved","OW389"
"2023-05-13 02:00",3.32160378239552,"Approved","OW389"
"2023-05-13 03:00",3.31751786131216,"Approved","OW389"
"2023-05-13 04:00",3.30143194022881,"Approved","OW389"
"2023-05-13 05:00",3.26334601914546,"Approved","OW389"
"2023-05-13 06:00",3.20926009806211,"Approved","OW389"
"2023-05-13 07:00",3.13917417697875,"Approved","OW389"
"2023-05-13 08:00",3.1090882558954,"Approved","OW389"
"2023-05-13 09:00",3.09900233481205,"Approved","OW389"
"2023-05-13 10:00",3.1049164137287,"Approved","OW389"
"2023-05-13 11:00",3.11383049264534,"Approved","OW389"
"2023-05-13 12:00",3.13274457156199,"Approved","OW389"
"2023-05-13 13:00",3.16965865047864,"Approved","OW389"
"2023-05-13 14:00",3.21257272939528,"Approved","OW389"
"2023-05-13 15:00",3.23948680831193,"Approved","OW389"
"2023-05-13 16:00",3.25440088722858,"Approved","OW389"
"2023-05-13 17:00",3.26131496614522,"Approved","OW389"
"2023-05-13 18:00",3.25722904506187,"Approved","OW389"
"2023-05-13 19:00",3.25514312397852,"Approved","OW389"
"2023-05-13 20:00",3.22805720289517,"Approved","OW389"
"2023-05-13 21:00",3.25397128181181,"Approved","OW389"
"2023-05-13 22:00",3.27988536072846,"Approved","OW389"
"2023-05-13 23:00",3.28679943964511,"Approved","OW389"
"2023-05-14 00:00",3.30071351856176,"Approved","OW389"
"2023-05-14 01:00",3.3256275974784,"Approved","OW389"
"2023-05-14 02:00",3.35054167639505,"Approved","OW389"
"2023-05-14 03:00",3.3714557553117,"Approved","OW389"
"2023-05-14 04:00",3.37836983422834,"Approved","OW389"
"2023-05-14 05:00",3.36428391314499,"Approved","OW389"
"2023-05-14 06:00",3.33219799206164,"Approved","OW389"
"2023-05-14 07:00",3.26711207097829,"Approved","OW389"
"2023-05-14 08:00",3.19302614989493,"Approved","OW389"
"2023-05-14 09:00",3.16394022881158,"Approved","OW389"
"2023-05-14 10:00",3.15385430772823,"Approved","OW389"
"2023-05-14 11:00",3.16576838664488,"Approved","OW389"
"2023-05-14 12:00",3.18368246556152,"Approved","OW389"
"2023-05-14 13:00",3.22659654447817,"Approved","OW389"
"2023-05-14 14:00",3.26951062339482,"Approved","OW389"
"2023-05-14 15:00",3.30542470231146,"Approved","OW389"
"2023-05-14 16:00",3.33233878122811,"Approved","OW389"
"2023-05-14 17:00",3.34725286014476,"Approved","OW389"
"2023-05-14 18:00",3.34916693906141,"Approved","OW389"
"2023-05-14 19:00",3.33908101797805,"Approved","OW389"
"2023-05-14 20:00",3.2959950968947,"Approved","OW389"
"2023-05-14 21:00",3.30390917581135,"Approved","OW389"
"2023-05-14 22:00",3.30782325472799,"Approved","OW389"
"2023-05-14 23:00",3.31873733364464,"Approved","OW389"
"2023-05-15 00:00",3.34065141256129,"Approved","OW389"
"2023-05-15 01:00",3.37056549147794,"Approved","OW389"
"2023-05-15 02:00",3.36447957039458,"Approved","OW389"
"2023-05-15 03:00",3.39339364931123,"Approved","OW389"
"2023-05-15 04:00",3.41530772822788,"Approved","OW389"
"2023-05-15 05:00",3.41722180714453,"Approved","OW389"
"2023-05-15 06:00",3.39913588606117,"Approved","OW389"
"2023-05-15 07:00",3.36504996497782,"Approved","OW389"
"2023-05-15 08:00",3.29296404389447,"Approved","OW389"
"2023-05-15 09:00",3.24887812281111,"Approved","OW389"
"2023-05-15 10:00",3.22179220172776,"Approved","OW389"
"2023-05-15 11:00",3.21770628064441,"Approved","OW389"
"2023-05-15 12:00",3.23862035956106,"Approved","OW389"
"2023-05-15 13:00",3.2805344384777,"Approved","OW389"
"2023-05-15 14:00",3.32744851739435,"Approved","OW389"
"2023-05-15 15:00",3.371362596311,"Approved","OW389"
"2023-05-15 16:00",3.40827667522764,"Approved","OW389"
"2023-05-15 17:00",3.43419075414429,"Approved","OW389"
"2023-05-15 18:00",3.44510483306094,"Approved","OW389"
"2023-05-15 19:00",3.44401891197759,"Approved","OW389"
"2023-05-15 20:00",3.41793299089423,"Approved","OW389"
"2023-05-15 21:00",3.37384706981088,"Approved","OW389"
"2023-05-15 22:00",3.34376114872753,"Approved","OW389"
"2023-05-15 23:00",3.32467522764417,"Approved","OW389"
"2023-05-16 00:00",3.30958930656082,"Approved","OW389"
"2023-05-16 01:00",3.34250338547747,"Approved","OW389"
"2023-05-16 02:00",3.37541746439412,"Approved","OW389"
"2023-05-16 03:00",3.40833154331076,"Approved","OW389"
"2023-05-16 04:00",3.43524562222741,"Approved","OW389"
"2023-05-16 05:00",3.45015970114406,"Approved","OW389"
"2023-05-16 06:00",3.44607378006071,"Approved","OW389"
"2023-05-16 07:00",3.42798785897735,"Approved","OW389"
"2023-05-16 08:00",3.388901937894,"Approved","OW389"
"2023-05-16 09:00",3.34181601681065,"Approved","OW389"
"2023-05-16 10:00",3.27973009572729,"Approved","OW389"
"2023-05-16 11:00",3.26764417464394,"Approved","OW389"
"2023-05-16 12:00",3.27655825356059,"Approved","OW389"
"2023-05-16 13:00",3.31547233247724,"Approved","OW389"
"2023-05-16 14:00",3.36638641139388,"Approved","OW389"
"2023-05-16 15:00",3.41530049031053,"Approved","OW389"
"2023-05-16 16:00",3.46121456922718,"Approved","OW389"
"2023-05-16 17:00",3.49212864814382,"Approved","OW389"
"2023-05-16 18:00",3.51404272706047,"Approved","OW389"
"2023-05-16 19:00",3.52095680597712,"Approved","OW389"
"2023-05-16 20:00",3.48087088489377,"Approved","OW389"
"2023-05-16 21:00",3.47378496381041,"Approved","OW389"
"2023-05-16 22:00",3.44169904272706,"Approved","OW389"
"2023-05-16 23:00",3.38161312164371,"Approved","OW389"
"2023-05-17 00:00",3.35452720056036,"Approved","OW389"
"2023-05-17 01:00",3.348441279477,"Approved","OW389"
"2023-05-17 02:00",3.35835535839365,"Approved","OW389"
"2023-05-17 03:00",3.3782694373103,"Approved","OW389"
"2023-05-17 04:00",3.41318351622694,"Approved","OW389"
"2023-05-17 05:00",3.44309759514359,"Approved","OW389"
"2023-05-17 06:00",3.45701167406024,"Approved","OW389"
"2023-05-17 07:00",3.45592575297688,"Approved","OW389"
"2023-05-17 08:00",3.43483983189353,"Approved","OW389"
"2023-05-17 09:00",3.38275391081018,"Approved","OW389"
"2023-05-17 10:00",3.34966798972683,"Approved","OW389"
"2023-05-17 11:00",3.31858206864347,"Approved","OW389"
"2023-05-17 12:00",3.31549614756012,"Approved","OW389"
"2023-05-17 13:00",3.34341022647677,"Approved","OW389"
"2023-05-17 14:00",3.38632430539342,"Approved","OW389"
"2023-05-17 15:00",3.43523838431006,"Approved","OW389"
"2023-05-17 16:00",3.48315246322671,"Approved","OW389"
"2023-05-17 17:00",3.52406654214336,"Approved","OW389"
"2023-05-17 18:00",3.55098062106,"Approved","OW389"
"2023-05-17 19:00",3.54989469997665,"Approved","OW389"
"2023-05-17 20:00",3.5608087788933,"Approved","OW389"
"2023-05-17 21:00",3.53872285780995,"Approved","OW389"
"2023-05-17 22:00",3.47863693672659,"Approved","OW389"
"2023-05-17 23:00",3.43055101564324,"Approved","OW389"
"2023-05-18 00:00",3.38846509455989,"Approved","OW389"
"2023-05-18 01:00",3.36837917347654,"Approved","OW389"
"2023-05-18 02:00",3.36529325239318,"Approved","OW389"
"2023-05-18 03:00",3.38520733130983,"Approved","OW389"
"2023-05-18 04:00",3.41612141022648,"Approved","OW389"
"2023-05-18 05:00",3.44703548914312,"Approved","OW389"
"2023-05-18 06:00",3.46694956805977,"Approved","OW389"
"2023-05-18 07:00",3.47686364697642,"Approved","OW389"
"2023-05-18 08:00",3.46777772589307,"Approved","OW389"
"2023-05-18 09:00",3.41269180480971,"Approved","OW389"
"2023-05-18 10:00",3.39360588372636,"Approved","OW389"
"2023-05-18 11:00",3.35651996264301,"Approved","OW389"
"2023-05-18 12:00",3.33943404155965,"Approved","OW389"
"2023-05-18 13:00",3.3553481204763,"Approved","OW389"
"2023-05-18 14:00",3.39626219939295,"Approved","OW389"
"2023-05-18 15:00",3.4471762783096,"Approved","OW389"
"2023-05-18 16:00",3.49609035722624,"Approved","OW389"
"2023-05-18 17:00",3.54200443614289,"Approved","OW389"
"2023-05-18 18:00",3.57791851505954,"Approved","OW389"
"2023-05-18 19:00",3.57883259397618,"Approved","OW389"
"2023-05-18 20:00",3.58874667289283,"Approved","OW389"
"2023-05-18 21:00",3.58266075180948,"Approved","OW389"
"2023-05-18 22:00",3.55457483072613,"Approved","OW389"
"2023-05-18 23:00",3.50548890964277,"Approved","OW389"
"2023-05-19 00:00",3.44340298855942,"Approved","OW389"
"2023-05-19 01:00",3.38831706747607,"Approved","OW389"
"2023-05-19 02:00",3.35023114639272,"Approved","OW389"
"2023-05-19 03:00",3.35714522530936,"Approved","OW389"
"2023-05-19 04:00",3.37905930422601,"Approved","OW389"
"2023-05-19 05:00",3.41197338314266,"Approved","OW389"
"2023-05-19 06:00",3.4448874620593,"Approved","OW389"
"2023-05-19 07:00",3.46680154097595,"Approved","OW389"
"2023-05-19 08:00",3.4607156198926,"Approved","OW389"
"2023-05-19 09:00",3.43262969880925,"Approved","OW389"
"2023-05-19 10:00",3.40554377772589,"Approved","OW389"
"2023-05-19 11:00",3.37045785664254,"Approved","OW389"
"2023-05-19 12:00",3.35837193555919,"Approved","OW389"
"2023-05-19 13:00",3.36328601447584,"Approved","OW389"
"2023-05-19 14:00",3.39620009339248,"Approved","OW389"
"2023-05-19 15:00",3.44111417230913,"Approved","OW389"
"2023-05-19 16:00",3.49302825122578,"Approved","OW389"
"2023-05-19 17:00",3.54194233014242,"Approved","OW389"
"2023-05-19 18:00",3.58485640905907,"Approved","OW389"
"2023-05-19 19:00",3.61577048797572,"Approved","OW389"
"2023-05-19 20:00",3.61668456689237,"Approved","OW389"
"2023-05-19 21:00",3.62459864580901,"Approved","OW389"
"2023-05-19 22:00",3.62251272472566,"Approved","OW389"
"2023-05-19 23:00",3.59242680364231,"Approved","OW389"
"2023-05-20 00:00",3.51134088255895,"Approved","OW389"
"2023-05-20 01:00",3.4462549614756,"Approved","OW389"
"2023-05-20 02:00",3.39016904039225,"Approved","OW389"
"2023-05-20 03:00",3.3690831193089,"Approved","OW389"
"2023-05-20 04:00",3.37099719822554,"Approved","OW389"
"2023-05-20 05:00",3.39291127714219,"Approved","OW389"
"2023-05-20 06:00",3.42282535605884,"Approved","OW389"
"2023-05-20 07:00",3.45473943497548,"Approved","OW389"
"2023-05-20 08:00",3.44265351389213,"Approved","OW389"
"2023-05-20 09:00",3.46056759280878,"Approved","OW389"
"2023-05-20 10:00",3.45248167172543,"Approved","OW389"
"2023-05-20 11:00",3.43539575064207,"Approved","OW389"
"2023-05-20 12:00",3.41530982955872,"Approved","OW389"
"2023-05-20 13:00",3.40922390847537,"Approved","OW389"
"2023-05-20 14:00",3.42213798739202,"Approved","OW389"
"2023-05-20 15:00",3.45905206630866,"Approved","OW389"
"2023-05-20 16:00",3.50396614522531,"Approved","OW389"
"2023-05-20 17:00",3.55488022414196,"Approved","OW389"
"2023-05-20 18:00",3.5757943030586,"Approved","OW389"
"2023-05-20 19:00",3.61770838197525,"Approved","OW389"
"2023-05-20 20:00",3.6466224608919,"Approved","OW389"
"2023-05-20 21:00",3.66053653980855,"Approved","OW389"
"2023-05-20 22:00",3.66145061872519,"Approved","OW389"
"2023-05-20 23:00",3.61836469764184,"Approved","OW389"
"2023-05-21 00:00",3.57427877655849,"Approved","OW389"
"2023-05-21 01:00",3.50919285547513,"Approved","OW389"
"2023-05-21 02:00",3.43910693439178,"Approved","OW389"
"2023-05-21 03:00",3.38702101330843,"Approved","OW389"
"2023-05-21 04:00",3.37193509222508,"Approved","OW389"
"2023-05-21 05:00",3.37884917114172,"Approved","OW389"
"2023-05-21 06:00",3.40076325005837,"Approved","OW389"
"2023-05-21 07:00",3.43267732897502,"Approved","OW389"
"2023-05-21 08:00",3.46059140789167,"Approved","OW389"
"2023-05-21 09:00",3.47850548680831,"Approved","OW389"
"2023-05-21 10:00",3.48041956572496,"Approved","OW389"
"2023-05-21 11:00",3.47133364464161,"Approved","OW389"
"2023-05-21 12:00",3.45524772355825,"Approved","OW389"
"2023-05-21 13:00",3.4431618024749,"Approved","OW389"
"2023-05-21 14:00",3.44707588139155,"Approved","OW389"
"2023-05-21 15:00",3.4729899603082,"Approved","OW389"
"2023-05-21 16:00",3.51390403922484,"Approved","OW389"
"2023-05-21 17:00",3.55681811814149,"Approved","OW389"
"2023-05-21 18:00",3.60173219705814,"Approved","OW389"
"2023-05-21 19:00",3.61164627597478,"Approved","OW389"
"2023-05-21 20:00",3.65456035489143,"Approved","OW389"
"2023-05-21 21:00",3.68047443380808,"Approved","OW389"
"2023-05-21 22:00",3.67338851272473,"Approved","OW389"
"2023-05-21 23:00",3.65430259164137,"Approved","OW389"
"2023-05-22 00:00",3.63721667055802,"Approved","OW389"
"2023-05-22 01:00",3.59113074947467,"Approved","OW389"
"2023-05-22 02:00",3.52904482839131,"Approved","OW389"
"2023-05-22 03:00",3.47095890730796,"Approved","OW389"
"2023-05-22 04:00",3.42987298622461,"Approved","OW389"
"2023-05-22 05:00",3.41578706514126,"Approved","OW389"
"2023-05-22 06:00",3.3977011440579,"Approved","OW389"
"2023-05-22 07:00",3.43161522297455,"Approved","OW389"
"2023-05-22 08:00",3.4625293018912,"Approved","OW389"
"2023-05-22 09:00",3.46844338080784,"Approved","OW389"
"2023-05-22 10:00",3.47935745972449,"Approved","OW389"
"2023-05-22 11:00",3.48227153864114,"Approved","OW389"
"2023-05-22 12:00",3.47618561755779,"Approved","OW389"
"2023-05-22 13:00",3.46809969647443,"Approved","OW389"
"2023-05-22 14:00",3.46801377539108,"Approved","OW389"
"2023-05-22 15:00",3.47692785430773,"Approved","OW389"
"2023-05-22 16:00",3.50684193322438,"Approved","OW389"
"2023-05-22 17:00",3.54575601214102,"Approved","OW389"
"2023-05-22 18:00",3.59167009105767,"Approved","OW389"
"2023-05-22 19:00",3.62958416997432,"Approved","OW389"
"2023-05-22 20:00",3.63649824889096,"Approved","OW389"
"2023-05-22 21:00",3.65741232780761,"Approved","OW389"
"2023-05-22 22:00",3.66832640672426,"Approved","OW389"
"2023-05-22 23:00",3.66724048564091,"Approved","OW389"
"2023-05-23 00:00",3.64415456455755,"Approved","OW389"
"2023-05-23 01:00",3.6120686434742,"Approved","OW389"
"2023-05-23 02:00",3.56598272239085,"Approved","OW389"
"2023-05-23 03:00",3.50989680130749,"Approved","OW389"
"2023-05-23 04:00",3.45781088022414,"Approved","OW389"
"2023-05-23 05:00",3.42972495914079,"Approved","OW389"
"2023-05-23 06:00",3.42263903805744,"Approved","OW389"
"2023-05-23 07:00",3.43655311697408,"Approved","OW389"
"2023-05-23 08:00",3.46346719589073,"Approved","OW389"
"2023-05-23 09:00",3.47038127480738,"Approved","OW389"
"2023-05-23 10:00",3.48829535372403,"Approved","OW389"
"2023-05-23 11:00",3.49420943264067,"Approved","OW389"
"2023-05-23 12:00",3.50212351155732,"Approved","OW389"
"2023-05-23 13:00",3.50303759047397,"Approved","OW389"
"2023-05-23 14:00",3.49995166939061,"Approved","OW389"
"2023-05-23 15:00",3.50486574830726,"Approved","OW389"
"2023-05-23 16:00",3.52377982722391,"Approved","OW389"
"2023-05-23 17:00",3.53769390614056,"Approved","OW389"
"2023-05-23 18:00",3.5666079850572,"Approved","OW389"
"2023-05-23 19:00",3.58552206397385,"Approved","OW389"